WS Maaseik 1 Meer informatie WS Maaseik 1


WS Maaseik 2 Meer informatie WS Maaseik 2


Regen radar Meer informatie rain snow radar


Bezoek onze andere website:

Vorige versie
weerstation Maaseik


Bezoek ook eens deze sites:

Weerstation Geleen



Het weer levert geen direct gevaar op.    Er zijn geen waarschuwingen afgegeven.

15 daagse weersverwachting La Chaux-de-Fonds (CH)

  • Overzicht
  • Per uur
  • 15 dagen
  • Extra
  • Vergelijk
  • Kaarten
  • Dagkaart
  • Meer »
  • Info
  • Statistieken
  • Directe link
    Temp 6h Neerslag Wind  
 06:19     20:59    Daglengte: 14:40 Vandaag
14:00
14°
 
5
20:00
13°
 
4
 06:20     20:58    Daglengte: 14:38 Morgen
02:00
12°
 
4
08:00
12°
 
5
14:00
15°
 
5
20:00
14°
 
3
 06:21     20:56    Daglengte: 14:35 Zaterdag 07 Aug
02:00
11°
 
2
08:00
12°
 
2
14:00
14°
16.3 mm
2
20:00
12°
79.3 mm
3
 06:23     20:54    Daglengte: 14:31 Zondag 08 Aug
02:00
11°
32.9 mm
4
08:00
10°
 
4
Locatie info
Region: La Chaux-de-Fonds
Latitude: 47.1032°N
Longitude: 6.8327°E
995 masl
Postcode: 2300
Temp/Neerslag /Baro Onweer/Dauwpunt
    Temp Baro 1h Neerslag Dauwpunt Wind UV Bewolking  
 06:19     20:59    Daglengte: 14:40 Vandaag
13:00
13°
1012.5 hPa
49%
11.7°
4
Windvlaag: 5.1 m/s
77%
14:00
14°
1012.3 hPa
73%
11.9°
5
Windvlaag: 5.4 m/s
39%
15:00
15°
1011.9 hPa
16%
12.8°
5
Windvlaag: 5 m/s
35%
16:00
15°
1011.5 hPa
17%
13.2°
5
Windvlaag: 4.6 m/s
20%
17:00
15°
1011.2 hPa
16%
12.8°
5
Windvlaag: 4.1 m/s
21%
18:00
14°
1011.3 hPa
14%
11.2°
5
Windvlaag: 2 m/s
54%
19:00
14°
1011.2 hPa
14%
10.8°
4
Windvlaag: 3.6 m/s
33%
20:00
13°
1011.3 hPa
14%
10.2°
4
Windvlaag: 2.8 m/s
9%
21:00
12°
1011.7 hPa
17%
9.6°
3
Windvlaag: 3.3 m/s
15%
22:00
12°
1012.0 hPa
14%
9.9°
3
Windvlaag: 5.7 m/s
34%
23:00
11°
1012.0 hPa
14%
9.9°
3
Windvlaag: 5.9 m/s
57%
 06:20     20:58    Daglengte: 14:38 Morgen
00:00
12°
1011.5 hPa
71%
10.1°
3
Windvlaag: 6.5 m/s
86%
01:00
12°
1011.0 hPa
82%
10.1°
3
Windvlaag: 6.2 m/s
83%
02:00
12°
1010.2 hPa
68%
9.9°
4
Windvlaag: 8 m/s
73%
03:00
12°
1009.7 hPa
80%
10.5°
4
Windvlaag: 8.1 m/s
81%
04:00
13°
1009.4 hPa
74%
11.5°
4
Windvlaag: 8.4 m/s
39%
05:00
13°
1009.4 hPa
26%
11.1°
5
Windvlaag: 8.2 m/s
40%
06:00
12°
1009.8 hPa
26%
11.1°
5
Windvlaag: 4.7 m/s
59%
07:00
12°
1010.8 hPa
66%
10.9°
6
Windvlaag: 4.5 m/s
49%
08:00
12°
1011.1 hPa
14%
10.6°
5
Windvlaag: 5.3 m/s
37%
09:00
12°
1011.3 hPa
14%
10.6°
5
Windvlaag: 6.1 m/s
32%
10:00
12°
1011.4 hPa
15%
11.7°
6
Windvlaag: 6.2 m/s
11%
11:00
13°
1011.6 hPa
14%
11.9°
6
Windvlaag: 5.9 m/s
16%
12:00
14°
1011.7 hPa
14%
12.8°
6
Windvlaag: 5.7 m/s
33%
13:00
14°
1011.7 hPa
14%
12.7°
5
Windvlaag: 5.6 m/s
53%
14:00
15°
1011.7 hPa
14%
13.2°
5
Windvlaag: 5.5 m/s
45%
15:00
14°
1011.4 hPa
14%
12.2°
5
Windvlaag: 3.3 m/s
62%
16:00
15°
1011.1 hPa
14%
12.7°
5
Windvlaag: 2.9 m/s
67%
17:00
15°
1011.0 hPa
14%
13.0°
4
Windvlaag: 2.5 m/s
53%
18:00
16°
1010.9 hPa
14%
11.6°
4
Windvlaag: 2.6 m/s
44%
19:00
15°
1010.9 hPa
14%
11.4°
4
Windvlaag: 1.4 m/s
27%
20:00
14°
1010.9 hPa
14%
10.4°
3
Windvlaag: -0.5 m/s
18%
21:00
13°
1011.1 hPa
52%
10.0°
2
Windvlaag: 0.1 m/s
14%
22:00
12°
1011.3 hPa
14%
10.1°
1
Windvlaag: 1 m/s
20%
23:00
11°
1011.3 hPa
14%
9.8°
2
Windvlaag: 2.6 m/s
24%
 06:21     20:56    Daglengte: 14:35 Zaterdag 07 Aug
00:00
11°
1011.1 hPa
14%
9.9°
1
Windvlaag: 2.1 m/s
30%
01:00
10°
1010.9 hPa
14%
9.6°
2
Windvlaag: 2.3 m/s
52%
02:00
11°
1010.6 hPa
14%
9.8°
2
Windvlaag: 4.1 m/s
46%
03:00
11°
1010.0 hPa
19%
9.8°
1
Windvlaag: 4 m/s
75%
04:00
11°
1009.7 hPa
55%
10.4°
1
Windvlaag: 4 m/s
64%
05:00
11°
1009.2 hPa
14%
10.6°
1
Windvlaag: 4.3 m/s
36%
06:00
11°
1008.8 hPa
14%
10.5°
2
Windvlaag: 4.4 m/s
35%
07:00
11°
1008.7 hPa
14%
10.5°
2
Windvlaag: 5.4 m/s
29%
08:00
12°
1008.5 hPa
14%
11.0°
2
Windvlaag: 5.4 m/s
67%
09:00
14°
1008.3 hPa
82%
11.7°
2
Windvlaag: 3.9 m/s
74%
10:00
15°
1007.8 hPa
82%
10.8°
2
Windvlaag: 3.1 m/s
71%
11:00
15°
1007.7 hPa 4.0 mm
100%
9.1°
2
Windvlaag: 0 m/s
98%
12:00
15°
1007.8 hPa 3.6 mm
100%
11.4°
2
Windvlaag: -1.1 m/s
99%
13:00
14°
1007.4 hPa 4.0 mm
100%
13.5°
1
Windvlaag: -2.2 m/s
99%
14:00
14°
1006.9 hPa 4.7 mm
100%
13.5°
2
Windvlaag: 1.7 m/s
100%
15:00
14°
1006.3 hPa 6.6 mm
100%
13.5°
3
Windvlaag: 6.4 m/s
100%
16:00
14°
1006.9 hPa 8.4 mm
100%
13.2°
2
Windvlaag: 8.2 m/s
100%
17:00
13°
1007.1 hPa 15.5 mm
100%
12.4°
2
Windvlaag: -4.5 m/s
100%
18:00
12°
1008.3 hPa 17.8 mm
100%
12.4°
3
Windvlaag: -3.8 m/s
100%
19:00
12°
1008.1 hPa 18.6 mm
100%
11.8°
3
Windvlaag: -1.2 m/s
100%
20:00
12°
1009.4 hPa 12.5 mm
100%
11.7°
3
Windvlaag: -0 m/s
100%
21:00
12°
1009.9 hPa 11.6 mm
100%
11.8°
4
Windvlaag: 6.7 m/s
97%
22:00
11°
1011.0 hPa 10.7 mm
100%
10.7°
4
Windvlaag: 7.1 m/s
100%
23:00
11°
1011.5 hPa 10.6 mm
95%
10.0°
3
Windvlaag: 6.9 m/s
96%
 06:23     20:54    Daglengte: 14:31 Zondag 08 Aug
00:00
11°
1012.0 hPa
42%
9.5°
4
Windvlaag: 6.9 m/s
51%
01:00
11°
1012.3 hPa
22%
9.4°
4
Windvlaag: 6.7 m/s
33%
02:00
11°
1012.5 hPa
21%
9.7°
4
Windvlaag: 6.9 m/s
53%
03:00
10°
1012.4 hPa
22%
9.5°
4
Windvlaag: 5.2 m/s
48%
04:00
10°
1012.6 hPa
22%
9.4°
4
Windvlaag: 4.9 m/s
60%
05:00
10°
Voelt als: 7.7°
1012.8 hPa
22%
9.4°
4
Windvlaag: 4.1 m/s
58%
06:00
10°
Voelt als: 7.5°
1013.3 hPa
30%
9.3°
4
Windvlaag: 3.6 m/s
63%
07:00
Voelt als: 7.5°
1014.1 hPa
27%
8.8°
4
Windvlaag: 2.7 m/s
70%
08:00
10°
Voelt als: 7.6°
1014.7 hPa
27%
8.8°
4
Windvlaag: 2.9 m/s
74%
09:00
11°
1015.5 hPa   -39.2°
5
Windvlaag: 0 m/s
70%
Temp/Neerslag /Baro Onweer/Dauwpunt
    Temp Baro Neerslag Dauwpunt Wind Bewolking  
 06:19     20:59    Daglengte: 14:40 Vandaag
14:00
14°
1012.3 hPa   11.9°
5
39%
17:00
15°
1011.2 hPa   12.8°
5
21%
20:00
13°
1011.3 hPa   10.2°
4
9%
23:00
11°
1012.0 hPa   9.9°
3
57%
 06:20     20:58    Daglengte: 14:38 Morgen
02:00
12°
1010.2 hPa   9.9°
4
73%
05:00
13°
1009.4 hPa   11.1°
5
40%
08:00
12°
1011.1 hPa   10.6°
5
37%
11:00
13°
1011.6 hPa   11.9°
6
16%
14:00
15°
1011.7 hPa   13.2°
5
45%
17:00
15°
1011.0 hPa   13.0°
4
53%
20:00
14°
1010.9 hPa   10.4°
3
18%
23:00
11°
1011.3 hPa   9.8°
2
24%
 06:21     20:56    Daglengte: 14:35 Zaterdag 07 Aug
02:00
11°
1010.6 hPa   9.8°
2
46%
05:00
11°
1009.2 hPa   10.6°
1
36%
08:00
12°
1008.5 hPa   11.0°
2
67%
11:00
15°
1007.7 hPa 4.0 mm 9.1°
2
98%
14:00
14°
1006.9 hPa 12.4 mm 13.5°
2
100%
17:00
13°
1007.1 hPa 30.5 mm 12.4°
2
100%
20:00
12°
1009.4 hPa 48.9 mm 11.7°
3
100%
23:00
11°
1011.5 hPa 32.9 mm 10.0°
3
96%
 06:23     20:54    Daglengte: 14:31 Zondag 08 Aug
02:00
11°
1012.5 hPa   9.7°
4
53%
05:00
10°
Voelt als: 7.7°
1012.8 hPa   9.4°
4
58%
08:00
10°
Voelt als: 7.6°
1014.7 hPa   8.8°
4
74%
11:00
12°
1015.9 hPa   8.4°
5
0%
14:00
15°
1016.3 hPa   8.7°
5
0%
17:00
16°
1017.3 hPa 40.1 mm 7.5°
5
1%
20:00
13°
1019.3 hPa 40.1 mm 9.0°
2
0%
23:00
Voelt als: 8.7°
1021.7 hPa 40.1 mm 7.3°
1
0%
 06:24     20:53    Daglengte: 14:29 Maandag 09 Aug
02:00
Voelt als: 8.2°
1021.8 hPa 40.1 mm 6.0°
1
0%
05:00
Voelt als: 8.4°
1021.3 hPa 40.1 mm 5.7°
1
1%
08:00
11°
1021.7 hPa 40.1 mm 6.1°
1
1%
11:00
15°
1022.2 hPa 40.1 mm 5.3°
1
1%
14:00
18°
1022.2 hPa 40.1 mm 5.5°
2
1%
17:00
18°
1022.1 hPa 40.1 mm 6.7°
2
1%
20:00
14°
1023.6 hPa 40.2 mm 10.2°
1
0%
23:00
10°
1025.2 hPa 40.2 mm 8.1°
0
0%
 06:25     20:51    Daglengte: 14:26 Dinsdag 10 Aug
02:00
1025.5 hPa 40.2 mm 7.3°
0
0%
05:00
1024.9 hPa 40.2 mm 7.1°
0
0%
08:00
11°
1025.0 hPa 40.2 mm 8.4°
1
0%
11:00
17°
1023.8 hPa 40.2 mm 9.2°
1
0%
14:00
20°
1022.4 hPa 40.2 mm 9.1°
1
0%
17:00
20°
1021.5 hPa 40.2 mm 10.2°
1
0%
20:00
16°
1021.7 hPa 40.2 mm 12.8°
1
1%
23:00
12°
1022.9 hPa 40.2 mm 10.8°
1
0%
 06:26     20:50    Daglengte: 14:24 Woensdag 11 Aug
02:00
11°
1022.5 hPa 40.2 mm 9.8°
1
0%
05:00
10°
1022.1 hPa 40.2 mm 9.1°
1
0%
08:00
13°
1022.2 hPa 40.2 mm 10.8°
1
0%
11:00
19°
1021.7 hPa 40.2 mm 10.0°
1
0%
14:00
22°
1021.5 hPa 40.2 mm 9.2°
2
0%
17:00
22°
1021.1 hPa 40.2 mm 10.1°
1
0%
20:00
18°
1022.1 hPa 40.2 mm 13.9°
1
1%
23:00
14°
1023.5 hPa 40.2 mm 11.2°
0
1%
 06:28     20:48    Daglengte: 14:20 Donderdag 12 Aug
02:00
15°
1023.3 hPa 40.2 mm 11.6°
1
1%
05:00
14°
1022.8 hPa 40.2 mm 12.6°
0
1%
08:00
16°
1023.3 hPa 40.2 mm 12.7°
1
1%
11:00
22°
1022.8 hPa   11.6°
1
0%
14:00
24°
1022.0 hPa 80.3 mm 12.0°
1
0%
20:00
20°
1022.1 hPa 80.8 mm 16.1°
1
0%
 06:29     20:46    Daglengte: 14:17 Vrijdag 13 Aug
02:00
16°
1023.0 hPa 81.1 mm 14.0°
1
0%
08:00
16°
1022.0 hPa 81.3 mm 15.0°
1
1%
14:00
26°
1019.0 hPa 81.3 mm 14.1°
1
1%
20:00
21°
1018.1 hPa 84.1 mm 18.0°
0
1%
 06:30     20:45    Daglengte: 14:15 Zaterdag 14 Aug
02:00
17°
1018.1 hPa 86.9 mm 15.1°
2
1%
08:00
16°
1016.6 hPa 90.7 mm 15.2°
2
0%
14:00
24°
1014.6 hPa 97.1 mm 16.4°
4
1%
20:00
18°
1014.8 hPa 99.0 mm 14.8°
2
0%
 06:32     20:43    Daglengte: 14:11 Zondag 15 Aug
02:00
15°
1015.1 hPa 99.0 mm 13.0°
1
0%
08:00
12°
1017.7 hPa 0.5 mm 10.9°
1
39%
14:00
20°
1016.0 hPa 0.3 mm 12.0°
2
35%
20:00
16°
1016.1 hPa 0.7 mm 13.1°
1
41%
 06:33     20:41    Daglengte: 14:08 Maandag 16 Aug
02:00
11°
1017.5 hPa 0.6 mm 10.2°
1
34%
08:00
12°
1017.4 hPa 0.2 mm 10.5°
1
42%
14:00
19°
1016.8 hPa 0.4 mm 12.1°
2
49%
20:00
16°
1017.5 hPa 0.8 mm 12.9°
1
50%
 06:34     20:40    Daglengte: 14:06 Dinsdag 17 Aug
02:00
11°
1019.1 hPa 0.6 mm 10.4°
1
42%
08:00
12°
1019.5 hPa 0.2 mm 10.9°
1
47%
14:00
19°
1018.5 hPa 0.5 mm 12.2°
1
40%
20:00
16°
1018.6 hPa 0.7 mm 12.8°
1
36%
 06:36     20:38    Daglengte: 14:02 Woensdag 18 Aug
02:00
11°
1019.7 hPa 0.5 mm 10.3°
1
31%
08:00
12°
1019.6 hPa 0.5 mm 10.5°
1
38%
14:00
19°
1018.1 hPa 0.6 mm 12.4°
1
43%
20:00
16°
1018.0 hPa 0.7 mm 13.1°
1
41%
 06:37     20:36    Daglengte: 13:59 Donderdag 19 Aug
02:00
12°
1019.1 hPa 0.6 mm 10.5°
1
45%
08:00
12°
1018.7 hPa 0.5 mm 10.8°
1
46%
14:00
19°
1017.1 hPa 0.7 mm 12.1°
1
45%
20:00
16°
1017.1 hPa 0.9 mm 12.9°
1
47%
 06:38     20:34    Daglengte: 13:56 Vrijdag 20 Aug
02:00
11°
1018.2 hPa 0.4 mm 9.8°
1
41%
08:00
12°
1018.0 hPa 0.3 mm 10.1°
1
39%
  CAPE Lifted Index Hail Supercell Tornado SRH 3km CL BTM PRES CL TOP PRES Swiss DWD icon SMHI TS
 06:19     20:59    Daglengte: 14:40 Vandaag
13:00 219 J/kg -0.2 K 0 % 0 % 0 % 0 m²/s² 0 0 2.5 61
14:00 224 J/kg -0.3 K 0 % 0 % 0 % 0 m²/s² 0 0 3.06 3
15:00 239 J/kg -0.2 K 0 % 0 % 0 % 0 m²/s² 0 0 3.19 2
16:00 221 J/kg 0.2 K 0 % 0 % 0 % 0 m²/s² 0 0 3.5 2
17:00 198 J/kg -0.1 K 0 % 0 % 0 % 0 m²/s² 0 0 3.32 2
18:00 216 J/kg -0.4 K 0 % 0 % 0 % 0 m²/s² 0 0 2.93 2
19:00 155 J/kg -0.1 K 0 % 0 % 0 % 0 m²/s² 0 0 2.87 2
20:00 75 J/kg 0.3 K 0 % 0 % 0 % 0 m²/s² 0 0 2.46 2
21:00 43 J/kg 0.7 K 0 % 0 % 0 % 0 m²/s² 0 0 2.17 2
22:00 0 J/kg 1.5 K 0 % 0 % 0 % 0 m²/s² 0 0 2.91 3
23:00 0 J/kg 1.8 K 0 % 0 % 0 % 0 m²/s² 0 0 3.21 3
 06:20     20:58    Daglengte: 14:38 Morgen
00:00 0 J/kg 0.6 K 0 % 0 % 0 % 0 m²/s² 0 0 2.49 3
01:00 11 J/kg -0.1 K 0 % 0 % 0 % 0 m²/s² 0 0 0.02 61
02:00 0 J/kg -0.4 K 0 % 0 % 0 % 0 m²/s² 0 0 1.49 3
03:00 0 J/kg -1.1 K 0 % 0 % 0 % 0 m²/s² 0 0 0.97 3
04:00 11 J/kg -1.3 K 0 % 0 % 0 % 0 m²/s² 0 0 -1.09 3
05:00 11 J/kg -0.6 K 0 % 0 % 0 % 0 m²/s² 0 0 1.68 3
06:00 31 J/kg 0.7 K 0 % 0 % 0 % 0 m²/s² 0 0 4.09 3
07:00 76 J/kg 1.1 K 0 % 0 % 0 % 0 m²/s² 0 0 2.45 2
08:00 14 J/kg 2.6 K 0 % 0 % 0 % 0 m²/s² 0 0 7.28 2
09:00 13 J/kg 4.2 K 0 % 0 % 0 % 0 m²/s² 0 0 9.27 2
10:00 27 J/kg 4.1 K 0 % 0 % 0 % 0 m²/s² 0 0 9.32 2
11:00 46 J/kg 3.7 K 0 % 0 % 0 % 0 m²/s² 0 0 9.22 2
12:00 49 J/kg 3.2 K 0 % 0 % 0 % 0 m²/s² 0 0 8.72 3
13:00 65 J/kg 3.0 K 0 % 0 % 0 % 0 m²/s² 0 0 8.22 3
14:00 63 J/kg 3.0 K 0 % 0 % 0 % 0 m²/s² 0 0 7.98 3
15:00 70 J/kg 2.8 K 0 % 0 % 0 % 0 m²/s² 0 0 7.78 3
16:00 55 J/kg 2.7 K 0 % 0 % 0 % 0 m²/s² 0 0 7.68 3
17:00 43 J/kg 2.6 K 0 % 0 % 0 % 0 m²/s² 0 0 7.58 3
18:00 48 J/kg 2.4 K 0 % 0 % 0 % 0 m²/s² 0 0 7.14 3
19:00 51 J/kg 2.3 K 0 % 0 % 0 % 0 m²/s² 0 0 6.92 3
20:00 35 J/kg 2.1 K 0 % 0 % 0 % 0 m²/s² 0 0 7.08 3
21:00 1 J/kg 2.5 K 0 % 0 % 0 % 0 m²/s² 0 0 7.48 3
22:00 3 J/kg 3.0 K 0 % 0 % 0 % 0 m²/s² 0 0 7.5 3
23:00 0 J/kg 3.0 K 0 % 0 % 0 % 0 m²/s² 0 0 6.54 3
 06:21     20:56    Daglengte: 14:35 Zaterdag 07 Aug
00:00 1 J/kg 2.5 K 0 % 0 % 0 % 0 m²/s² 0 0 6.16 2
01:00 1 J/kg 2.2 K 0 % 0 % 0 % 0 m²/s² 0 0 5.95 3
02:00 0 J/kg 2.3 K 0 % 0 % 0 % 0 m²/s² 0 0 6.05 2
03:00 0 J/kg 2.2 K 0 % 0 % 0 % 0 m²/s² 0 0 6.04 3
04:00 1 J/kg 1.4 K 0 % 0 % 0 % 0 m²/s² 0 0 5.57 3
05:00 0 J/kg 1.3 K 0 % 0 % 0 % 0 m²/s² 0 0 5.56 2
06:00 0 J/kg 1.4 K 0 % 0 % 0 % 0 m²/s² 0 0 5.27 3
07:00 0 J/kg 1.1 K 0 % 0 % 0 % 0 m²/s² 0 0 3.65 3
08:00 0 J/kg 1.6 K 0 % 0 % 0 % 0 m²/s² 0 0 3.4 3
09:00 0 J/kg 1.9 K 0 % 0 % 0 % 0 m²/s² 0 0 3.28 3
10:00 2 J/kg 0.9 K 0 % 0 % 0 % 0 m²/s² 0 0 1.92 61
11:00 67 J/kg 0.6 K 0 % 0 % 0 % 0 m²/s² 0 0 0.99 63
12:00 85 J/kg 0.7 K 0 % 0 % 0 % 0 m²/s² 0 0 0.7 63
13:00 9 J/kg 1.1 K 0 % 0 % 0 % 0 m²/s² 0 0 1.1 80
14:00 10 J/kg 0.8 K 0 % 0 % 0 % 0 m²/s² 0 0 0.8 80
15:00 3 J/kg 4.2 K 0 % 0 % 0 % 0 m²/s² 0 0 4.2 63
16:00 0 J/kg 3.7 K 0 % 0 % 0 % 0 m²/s² 0 0 3.82 80
17:00 0 J/kg 1.7 K 0 % 0 % 0 % 0 m²/s² 0 0 1.82 65
18:00 31 J/kg 3.2 K 0 % 0 % 0 % 0 m²/s² 0 0 3.65 65
19:00 15 J/kg 3.0 K 0 % 0 % 0 % 0 m²/s² 0 0 3.09 65
20:00 36 J/kg 2.2 K 0 % 0 % 0 % 0 m²/s² 0 0 3.79 61
21:00 21 J/kg 0.9 K 0 % 0 % 0 % 0 m²/s² 0 0 4.23 61
22:00 3 J/kg -0.1 K 0 % 0 % 0 % 0 m²/s² 0 0 3.56 61
23:00 9 J/kg 0.3 K 0 % 0 % 0 % 0 m²/s² 0 0 3.57 61
 06:23     20:54    Daglengte: 14:31 Zondag 08 Aug
00:00 59 J/kg -0.8 K 0 % 0 % 0 % 0 m²/s² 0 0 1.6 2
01:00 92 J/kg 0.0 K 0 % 0 % 0 % 0 m²/s² 0 0 3.24 2
02:00 57 J/kg 0.5 K 0 % 0 % 0 % 0 m²/s² 0 0 4.94 2
03:00 14 J/kg 1.2 K 0 % 0 % 0 % 0 m²/s² 0 0 5.4 2
04:00 13 J/kg 1.4 K 0 % 0 % 0 % 0 m²/s² 0 0 5.84 2
05:00 9 J/kg 2.0 K 0 % 0 % 0 % 0 m²/s² 0 0 6.11 2
06:00 15 J/kg 2.5 K 0 % 0 % 0 % 0 m²/s² 0 0 6.4 3
07:00 28 J/kg 2.6 K 0 % 0 % 0 % 0 m²/s² 0 0 6.5 3
08:00 44 J/kg 2.6 K 0 % 0 % 0 % 0 m²/s² 0 0 6.17 2
09:00 0 J/kg 0.0 K 0 % 0 % 0 % 0 m²/s² 0 0 13.83 2
Temp Baro Wind Neerslag
  EWN Forecast EWN WRFDA DWD ICON FMI HIRLAM MET Norway GFS
 06:19     20:59    Daglengte: 14:40 Vandaag
14:00 13.6° 1012.3 hPa 4.8 m/s 0.0 mm 15.9° 1010.4 hPa 6.3 m/s 19.7 mm 13.5° 1012.4 hPa 4.9 m/s 2.0 mm 13.2° 1012.2 hPa 4.7 m/s 0.0 mm 12.6° 1012.4 hPa 3.8 m/s
17:00 14.5° 1011.2 hPa 4.6 m/s 0.0 mm 15.7° 1009.8 hPa 5.5 m/s 29.6 mm 15.4° 1011.2 hPa 5.6 m/s 0.0 mm 12.9° 1011.1 hPa 4.3 m/s 0.0 mm 15.9° 1011.1 hPa 4.5 m/s
20:00 13.3° 1011.3 hPa 3.7 m/s 0.0 mm 14.5° 1009.3 hPa 3.8 m/s 29.7 mm 13.5° 1011.5 hPa 3.9 m/s 0.0 mm 13.0° 1011.1 hPa 4.0 m/s 0.0 mm 13.9° 1011.2 hPa 3.0 m/s
23:00 11.3° 1012.0 hPa 3.0 m/s 0.0 mm 11.2° 1009.4 hPa 3.3 m/s 29.7 mm 12.5° 1012.6 hPa 3.4 m/s 0.0 mm 11.0° 1011.9 hPa 2.2 m/s 0.0 mm 10.4° 1012.1 hPa 2.3 m/s
 06:20     20:58    Daglengte: 14:38 Morgen
02:00 12.4° 1010.2 hPa 3.6 m/s 0.0 mm 11.2° 1008.2 hPa 3.5 m/s 29.9 mm 12.8° 1010.5 hPa 4.0 m/s 1.0 mm 11.7° 1009.8 hPa 3.1 m/s 0.0 mm 12.3° 1010.4 hPa 2.5 m/s
05:00 12.6° 1009.4 hPa 4.5 m/s 0.0 mm 12.3° 1006.9 hPa 4.9 m/s 31.4 mm 13.2° 1009.8 hPa 5.7 m/s 0.3 mm 12.5° 1008.5 hPa 4.3 m/s 0.0 mm 11.4° 1009.8 hPa 3.7 m/s
08:00 11.7° 1011.1 hPa 5.4 m/s 0.0 mm 11.7° 1008.4 hPa 6.8 m/s 34.2 mm 12.0° 1011.6 hPa 6.0 m/s 0.0 mm 11.8° 1010.0 hPa 5.2 m/s 0.0 mm 11.3° 1011.1 hPa 4.0 m/s
11:00 13.2° 1011.6 hPa 5.6 m/s 0.0 mm 13.4° 1008.4 hPa 5.9 m/s 36.5 mm 14.0° 1012.0 hPa 6.6 m/s 0.0 mm 11.5° 1011.1 hPa 5.5 m/s 0.0 mm 15.3° 1011.5 hPa 6.1 m/s
14:00 14.7° 1011.7 hPa 5.2 m/s 0.0 mm 15.3° 1008.6 hPa 5.5 m/s 36.8 mm 16.0° 1011.9 hPa 6.0 m/s 0.0 mm 11.3° 1011.5 hPa 5.3 m/s 0.0 mm 18.0° 1010.9 hPa 5.2 m/s
17:00 15.5° 1011.0 hPa 4.4 m/s 0.0 mm 16.9° 1008.0 hPa 4.7 m/s 36.8 mm 16.3° 1011.3 hPa 4.9 m/s 0.0 mm 12.5° 1010.9 hPa 4.4 m/s 0.0 mm 18.3° 1010.0 hPa 3.9 m/s
20:00 14.2° 1010.9 hPa 2.6 m/s 0.0 mm 15.4° 1008.0 hPa 2.6 m/s 36.8 mm 14.3° 1011.2 hPa 1.8 m/s 0.0 mm 13.1° 1010.6 hPa 4.8 m/s 0.0 mm 14.5° 1010.5 hPa 1.7 m/s
23:00 11.3° 1011.3 hPa 1.5 m/s 0.0 mm 10.5° 1008.8 hPa 2.8 m/s 36.8 mm 12.4° 1011.5 hPa 1.2 m/s 0.0 mm 11.3° 1011.9 hPa 2.5 m/s 0.0 mm 10.9° 1011.1 hPa 0.1 m/s
 06:21     20:56    Daglengte: 14:35 Zaterdag 07 Aug
02:00 10.6° 1010.6 hPa 1.6 m/s 0.0 mm 10.5° 1007.6 hPa 2.2 m/s 36.8 mm 12.2° 1010.7 hPa 1.4 m/s 0.0 mm 8.8° 1011.9 hPa 1.1 m/s 0.0 mm 10.6° 1010.5 hPa 0.8 m/s
05:00 11.1° 1009.2 hPa 1.5 m/s 0.0 mm 10.3° 1006.4 hPa 2.0 m/s 36.8 mm 12.0° 1009.3 hPa 1.1 m/s 0.1 mm 7.8° 1010.8 hPa 1.2 m/s 0.0 mm 9.8° 1009.0 hPa 1.1 m/s
08:00 12.2° 1008.5 hPa 2.2 m/s 0.0 mm 13.3° 1005.8 hPa 2.5 m/s 36.9 mm 13.0° 1008.2 hPa 0.9 m/s 0.0 mm 10.8° 1009.0 hPa 2.7 m/s 0.0 mm 12.3° 1007.2 hPa 1.1 m/s
11:00 15.1° 1007.7 hPa 1.8 m/s 4.0 mm 17.9° 1005.1 hPa 2.6 m/s 36.9 mm 13.4° 1008.0 hPa 0.7 m/s 5.5 mm 18.6° 1005.7 hPa 1.1 m/s
14:00 14.0° 1006.9 hPa 1.6 m/s 12.4 mm 11.6° 1005.2 hPa 5.7 m/s 51.0 mm 13.8° 1007.3 hPa 1.1 m/s 4.7 mm 17.1° 1006.3 hPa 2.4 m/s
17:00 12.9° 1007.1 hPa 2.3 m/s 30.5 mm 11.2° 1007.0 hPa 2.4 m/s 105.2 mm 13.3° 1006.3 hPa 1.2 m/s 12.2 mm 12.7° 1008.4 hPa 1.5 m/s
20:00 11.9° 1009.4 hPa 3.2 m/s 48.9 mm 11.6° 1007.4 hPa 4.3 m/s 146.5 mm 13.0° 1009.3 hPa 1.9 m/s 28.0 mm 11.8° 1009.3 hPa 0.8 m/s
23:00 11.0° 1011.5 hPa 3.4 m/s 32.9 mm 10.2° 1008.8 hPa 3.8 m/s 150.4 mm 12.4° 1011.6 hPa 3.4 m/s 3.9 mm 11.3° 1011.9 hPa 1.6 m/s
 06:23     20:54    Daglengte: 14:31 Zondag 08 Aug
02:00 10.6° 1012.5 hPa 4.3 m/s 0.0 mm 10.7° 1009.5 hPa 5.7 m/s 150.6 mm 10.9° 1012.8 hPa 4.2 m/s 0.0 mm 11.1° 1013.0 hPa 3.5 m/s
05:00 9.9° 1012.8 hPa 4.3 m/s 0.0 mm 9.1° 1010.0 hPa 4.9 m/s 151.0 mm 10.4° 1013.3 hPa 4.3 m/s 0.0 mm 9.5° 1013.3 hPa 2.9 m/s
08:00 9.8° 1014.7 hPa 4.3 m/s 0.0 mm 9.7° 1011.8 hPa 5.3 m/s 151.4 mm 10.5° 1015.1 hPa 4.3 m/s 0.0 mm 10.1° 1014.1 hPa 3.2 m/s
11:00 12.3° 1015.9 hPa 5.1 m/s 0.0 mm 12.4° 1016.0 hPa 5.3 m/s 0.0 mm 11.9° 1015.6 hPa 3.9 m/s 39.9 mm
14:00 14.7° 1016.3 hPa 5.4 m/s 0.0 mm 14.7° 1016.3 hPa 5.5 m/s 0.0 mm 14.8° 1016.1 hPa 4.9 m/s 40.0 mm
17:00 15.7° 1017.3 hPa 5.1 m/s 40.1 mm 15.7° 1017.3 hPa 5.1 m/s 40.1 mm
20:00 12.5° 1019.3 hPa 1.9 m/s 40.1 mm 12.5° 1019.3 hPa 1.9 m/s 40.1 mm
23:00 8.7° 1021.7 hPa 0.8 m/s 40.1 mm 8.7° 1021.7 hPa 0.8 m/s 40.1 mm
 06:24     20:53    Daglengte: 14:29 Maandag 09 Aug
02:00 8.2° 1021.8 hPa 0.8 m/s 40.1 mm 8.2° 1021.8 hPa 0.8 m/s 40.1 mm
05:00 8.6° 1021.3 hPa 1.2 m/s 40.1 mm 8.6° 1021.3 hPa 1.2 m/s 40.1 mm
08:00 10.5° 1021.7 hPa 1.0 m/s 40.1 mm 10.5° 1021.7 hPa 1.0 m/s 40.1 mm
11:00 15.4° 1022.2 hPa 1.1 m/s 40.1 mm 15.4° 1022.2 hPa 1.1 m/s 40.1 mm
14:00 17.6° 1022.2 hPa 1.6 m/s 40.1 mm 17.6° 1022.2 hPa 1.6 m/s 40.1 mm
17:00 18.2° 1022.1 hPa 2.1 m/s 40.1 mm 18.2° 1022.1 hPa 2.1 m/s 40.1 mm
20:00 13.9° 1023.6 hPa 1.4 m/s 40.2 mm 13.9° 1023.6 hPa 1.4 m/s 40.2 mm
23:00 10.1° 1025.2 hPa 0.3 m/s 40.2 mm 10.1° 1025.2 hPa 0.3 m/s 40.2 mm
 06:25     20:51    Daglengte: 14:26 Dinsdag 10 Aug
02:00 9.1° 1025.5 hPa 0.2 m/s 40.2 mm 9.1° 1025.5 hPa 0.2 m/s 40.2 mm
05:00 8.5° 1024.9 hPa 0.4 m/s 40.2 mm 8.5° 1024.9 hPa 0.4 m/s 40.2 mm
08:00 11.1° 1025.0 hPa 0.6 m/s 40.2 mm 11.1° 1025.0 hPa 0.6 m/s 40.2 mm
11:00 17.0° 1023.8 hPa 0.9 m/s 40.2 mm 17.0° 1023.8 hPa 0.9 m/s 40.2 mm
14:00 19.8° 1022.4 hPa 0.7 m/s 40.2 mm 19.8° 1022.4 hPa 0.7 m/s 40.2 mm
17:00 20.0° 1021.5 hPa 1.0 m/s 40.2 mm 20.0° 1021.5 hPa 1.0 m/s 40.2 mm
20:00 15.7° 1021.7 hPa 1.1 m/s 40.2 mm 15.7° 1021.7 hPa 1.1 m/s 40.2 mm
23:00 11.9° 1022.9 hPa 0.7 m/s 40.2 mm 11.9° 1022.9 hPa 0.7 m/s 40.2 mm
 06:26     20:50    Daglengte: 14:24 Woensdag 11 Aug
02:00 11.0° 1022.5 hPa 0.8 m/s 40.2 mm 11.0° 1022.5 hPa 0.8 m/s 40.2 mm
05:00 10.2° 1022.1 hPa 0.9 m/s 40.2 mm 10.2° 1022.1 hPa 0.9 m/s 40.2 mm
08:00 12.6° 1022.2 hPa 0.8 m/s 40.2 mm 12.6° 1022.2 hPa 0.8 m/s 40.2 mm
11:00 19.0° 1021.7 hPa 1.1 m/s 40.2 mm 19.0° 1021.7 hPa 1.1 m/s 40.2 mm
14:00 22.1° 1021.5 hPa 1.7 m/s 40.2 mm 22.1° 1021.5 hPa 1.7 m/s 40.2 mm
17:00 22.3° 1021.1 hPa 1.4 m/s 40.2 mm 22.3° 1021.1 hPa 1.4 m/s 40.2 mm
20:00 17.6° 1022.1 hPa 0.7 m/s 40.2 mm 17.6° 1022.1 hPa 0.7 m/s 40.2 mm
23:00 14.4° 1023.5 hPa 0.1 m/s 40.2 mm 14.4° 1023.5 hPa 0.1 m/s 40.2 mm
 06:28     20:48    Daglengte: 14:20 Donderdag 12 Aug
02:00 14.7° 1023.3 hPa 0.6 m/s 40.2 mm 14.7° 1023.3 hPa 0.6 m/s 40.2 mm
05:00 14.3° 1022.8 hPa 0.5 m/s 40.2 mm 14.3° 1022.8 hPa 0.5 m/s 40.2 mm
08:00 15.6° 1023.3 hPa 1.0 m/s 40.2 mm 15.6° 1023.3 hPa 1.0 m/s 40.2 mm
11:00 21.8° 1022.8 hPa 0.6 m/s 40.2 mm 21.8° 1022.8 hPa 0.6 m/s 40.2 mm
14:00 24.4° 1022.0 hPa 0.9 m/s 40.2 mm 24.4° 1022.0 hPa 0.9 m/s 40.2 mm
20:00 19.6° 1022.1 hPa 0.8 m/s 40.6 mm 19.6° 1022.1 hPa 0.8 m/s 40.6 mm
 06:29     20:46    Daglengte: 14:17 Vrijdag 13 Aug
02:00 15.5° 1023.0 hPa 0.7 m/s 40.6 mm 15.5° 1023.0 hPa 0.7 m/s 40.6 mm
08:00 16.5° 1022.0 hPa 0.9 m/s 40.7 mm 16.5° 1022.0 hPa 0.9 m/s 40.7 mm
14:00 25.9° 1019.0 hPa 0.8 m/s 40.7 mm 25.9° 1019.0 hPa 0.8 m/s 40.7 mm
20:00 20.8° 1018.1 hPa 0.1 m/s 43.0 mm 20.8° 1018.1 hPa 0.1 m/s 43.0 mm
 06:30     20:45    Daglengte: 14:15 Zaterdag 14 Aug
02:00 16.6° 1018.1 hPa 1.7 m/s 43.6 mm 16.6° 1018.1 hPa 1.7 m/s 43.6 mm
08:00 16.3° 1016.6 hPa 2.1 m/s 46.7 mm 16.3° 1016.6 hPa 2.1 m/s 46.7 mm
14:00 24.0° 1014.6 hPa 4.1 m/s 49.1 mm 24.0° 1014.6 hPa 4.1 m/s 49.1 mm
20:00 18.4° 1014.8 hPa 2.3 m/s 49.5 mm 18.4° 1014.8 hPa 2.3 m/s 49.5 mm
 06:32     20:43    Daglengte: 14:11 Zondag 15 Aug
02:00 14.5° 1015.1 hPa 1.4 m/s 49.5 mm 14.5° 1015.1 hPa 1.4 m/s 49.5 mm
08:00 12.4° 1017.7 hPa 0.7 m/s 0.5 mm
14:00 19.6° 1016.0 hPa 1.7 m/s 0.3 mm
20:00 15.7° 1016.1 hPa 1.2 m/s 0.7 mm
 06:33     20:41    Daglengte: 14:08 Maandag 16 Aug
02:00 11.3° 1017.5 hPa 0.7 m/s 0.6 mm
08:00 12.0° 1017.4 hPa 1.0 m/s 0.2 mm
14:00 19.0° 1016.8 hPa 1.7 m/s 0.4 mm
20:00 15.6° 1017.5 hPa 1.0 m/s 0.8 mm
 06:34     20:40    Daglengte: 14:06 Dinsdag 17 Aug
02:00 11.4° 1019.1 hPa 0.5 m/s 0.6 mm
08:00 12.0° 1019.5 hPa 0.6 m/s 0.2 mm
14:00 19.4° 1018.5 hPa 1.2 m/s 0.5 mm
20:00 15.8° 1018.6 hPa 0.9 m/s 0.7 mm
 06:36     20:38    Daglengte: 14:02 Woensdag 18 Aug
02:00 11.4° 1019.7 hPa 0.5 m/s 0.5 mm
08:00 12.0° 1019.6 hPa 0.7 m/s 0.5 mm
14:00 19.5° 1018.1 hPa 1.2 m/s 0.6 mm
20:00 16.0° 1018.0 hPa 0.7 m/s 0.7 mm
 06:37     20:36    Daglengte: 13:59 Donderdag 19 Aug
02:00 11.6° 1019.1 hPa 0.6 m/s 0.6 mm
08:00 11.9° 1018.7 hPa 0.7 m/s 0.5 mm
14:00 19.3° 1017.1 hPa 1.2 m/s 0.7 mm
20:00 15.6° 1017.1 hPa 0.9 m/s 0.9 mm
 06:38     20:34    Daglengte: 13:56 Vrijdag 20 Aug
02:00 11.3° 1018.2 hPa 0.8 m/s 0.4 mm
08:00 11.5° 1018.0 hPa 0.7 m/s 0.3 mm
FMI Hirlam - 7.5 km EWN WRFDA - 12 km DWD ICON - 7 km GFS - 25 km Basiskaart






























































Updatetijd (Europe/Brussels) Resolutie Lengte Stap
FMI Hirlam 07:00, 13:00, 19:00, 01:00 7.5 km 49h 1h
EWN WRFDA 04:15, 10:15, 16:15, 22:15 12 km 73h 1h
DWD ICON 11:45, 17:45, 23:45, 05:45 7 km 75h 1h
GFS 08:30, 14:30, 20:30, 02:30 25 km 237h 3h
30+ mm
25-30 mm
20-25 mm
15-20 mm
10-15 mm
6-10 mm
4-6 mm
2-4 mm
1-2 mm
0.5-1 mm
0.2-0.5 mm
0.1-0.2 mm
30+ mm
25-30 mm
20-25 mm
15-20 mm
10-15 mm
6-10 mm
4-6 mm
2-4 mm
1-2 mm
0.5-1 mm
0.2-0.5 mm
0.1-0.2 mm
Sneeuwval
Natte sneeuw
Hagel
Vorst
30+ mm
25-30 mm
20-25 mm
15-20 mm
10-15 mm
6-10 mm
4-6 mm
2-4 mm
1-2 mm
0.5-1 mm
0.2-0.5 mm
0.1-0.2 mm
Sneeuwval
Natte sneeuw
Hagel
Vorst
Onweer
50 mm
40 mm
30 mm
26 mm
22 mm
18 mm
14 mm
10 mm
9 mm
8 mm
7 mm
6 mm
5 mm
4.5 mm
4 mm
3.5 mm
3 mm
2.5 mm
2 mm
1.5 mm
1 mm
0.8 mm
0.6 mm
0.4 mm
0.2 mm
0.05 mm
35°
30°
25°
20°
15°
10°
-5°
-10°
-15°
-20°
-25°
-30°
-35°
33> m/s
29 m/s
25 m/s
21 m/s
17 m/s
14 m/s
11 m/s
8 m/s
5 m/s
3 m/s
0 m/s
2600 J/kg
2400 J/kg
2200 J/kg
2000 J/kg
1800 J/kg
1600 J/kg
1400 J/kg
1200 J/kg
1000 J/kg
800 J/kg
600 J/kg
400 J/kg
200 J/kg
70 dBZ
65 dBZ
60 dBZ
55 dBZ
50 dBZ
45 dBZ
40 dBZ
35 dBZ
30 dBZ
25 dBZ
20 dBZ
15 dBZ
10 dBZ
5 dBZ
-1 K
-2 K
-3 K
-4 K
-5 K
-6 K
-7 K
-8 K
-9 K
950 m²/s²
900 m²/s²
850 m²/s²
800 m²/s²
750 m²/s²
700 m²/s²
650 m²/s²
600 m²/s²
550 m²/s²
500 m²/s²
450 m²/s²
400 m²/s²
350 m²/s²
300 m²/s²
250 m²/s²
200 m²/s²
150 m²/s²
100 m²/s²
46 m/s
44 m/s
42 m/s
40 m/s
38 m/s
36 m/s
34 m/s
32 m/s
30 m/s
28 m/s
26 m/s
24 m/s
22 m/s
20 m/s
16 m/s
12 m/s
8 m/s
4 m/s
30 m/s
28 m/s
26 m/s
24 m/s
22 m/s
20 m/s
18 m/s
16 m/s
14 m/s
12 m/s
10 m/s
8 m/s
6 m/s
4 m/s
2 m/s
3.0
2.8
2.6
2.4
2.2
2.0
1.8
1.6
1.4
1.2
1.0
0.8
0.6
0.4
0.2
15
14
13
12
11
10
9
8
7
6
5
4
3
2
1
90%
80%
70%
60%
50%
40%
30%
20%
10%
42
40
38
36
34
32
30
28
26
24
22
20
18
16
14
12
90+ cm
80-90 cm
70-80 cm
60-70 cm
50-60 cm
40-50 cm
30-40 cm
20-30 cm
10-20 cm
1-10 cm
Sneeuwval
Natte sneeuw
Regen
>120 mm
115 mm
110 mm
105 mm
100 mm
95 mm
90 mm
85 mm
80 mm
75 mm
70 mm
65 mm
60 mm
55 mm
50 mm
45 mm
45 mm
40 mm
35 mm
30 mm
25 mm
20 mm
15 mm
10 mm
5 mm
0.1 mm
960 hPa
880 hPa
800 hPa
720 hPa
640 hPa
560 hPa
584 gpdm
568 gpdm
552 gpdm
536 gpdm
520 gpdm
504 gpdm
488 gpdm
Extreem zwaar Noodweer Kans op onweer
15% 15% 5% 50% 15%

Dag




Kaart






35°
30°
25°
20°
15°
10°
-5°
-10°
-15°
-20°
-25°
-30°
-35°
33> m/s
29 m/s
25 m/s
21 m/s
17 m/s
14 m/s
11 m/s
8 m/s
5 m/s
3 m/s
0 m/s
Extreem zwaar Noodweer Kans op onweer
15% 15% 5% 50% 15%
</
>120 mm
115 mm
110 mm
105 mm
100 mm
95 mm
90 mm
85 mm
80 mm
75 mm
70 mm
65 mm
60 mm
55 mm
50 mm
45 mm
45 mm
40 mm
35 mm
30 mm
25 mm
20 mm
15 mm